Flag for U.S.A. Weather past 2 weeks in Pittsburgh, Pennsylvania, U.S.A.

Now
41 °F

Sunny.


Feels Like: 39 °F
Forecast: 38 / 64 °F
Wind: 3 mph from Northwest

Location: Allegheny County Airport

Current Time: Apr 28, 2015 at 8:54:00 AM

Latest Report: Apr 28, 2015 at 7:53 AM


Visibility: 10 mi

Pressure: 30.07 "Hg

Humidity: 76%

Dew point: 34 °F

Location of PittsburghLocation

Historic Weather in Pittsburgh — Graph

°F

Pittsburgh temperature yesterday

Maximum temperature yesterday: 48 °F (at 11:53 AM)
Minimum temperature yesterday: 37 °F (at 6:53 AM)
Average temperature yesterday: 43 °F

Past Weeks' High & Low Weather Summary

 TemperatureHumidityPressure
High80 °F (Apr 13, 3:53 PM)88% (Apr 25, 8:53 AM)30.32 "Hg (Apr 25, 8:53 AM)
Low30 °F (Apr 24, 6:53 AM)13% (Apr 15, 4:53 PM)29.46 "Hg (Apr 20, 2:53 PM)
Average52 °F50%29.95 "Hg
* Reported Apr 13 6:53 AM — Apr 28 6:53 AM, Pittsburgh, Weather by CustomWeather, © 2015

Note: Actual official high and low records may vary slightly from our data, if they occured in-between our weather recording intervals... More about our weather records

Advertising

Pittsburgh weather history for previous 24 hours

 ConditionsComfort  
Time TempWeatherWind HumidityBarometerVisibility
6:53 AM
Tue, Apr 28
39 °FClear.7 mph79%30.06 "Hg9 mi
5:53 AM39 °FClear.6 mph79%30.03 "Hg10 mi
4:53 AM39 °FClear.9 mph79%30.02 "Hg10 mi
3:53 AM40 °FOvercast.6 mph77%30.03 "Hg10 mi
2:53 AM40 °FMostly cloudy.7 mph80%30.03 "Hg10 mi
1:53 AM40 °FOvercast.5 mph77%30.04 "Hg10 mi
12:53 AM40 °FPassing clouds.8 mph77%30.03 "Hg10 mi
11:53 PM
Mon, Apr 27
41 °FOvercast.8 mph74%30.03 "Hg10 mi
10:53 PM42 °FMostly cloudy.9 mph68%30.03 "Hg10 mi
9:53 PM42 °FMostly cloudy.15 mph62%30.02 "Hg10 mi
8:53 PM42 °FOvercast.9 mph65%30.01 "Hg10 mi
7:53 PM43 °FMostly cloudy.10 mph60%30.00 "Hg10 mi
7:03 PM43 °FMore clouds than sun.13 mph62%29.95 "Hg10 mi
6:53 PM43 °FMostly cloudy.13 mph62%29.98 "Hg10 mi
5:53 PM43 °FOvercast.13 mph65%29.97 "Hg10 mi
4:53 PM44 °FMostly cloudy.12 mph63%29.93 "Hg10 mi
3:53 PM45 °FOvercast.17 mph63%29.91 "Hg10 mi
2:53 PM48 °FCloudy.9 mph66%29.91 "Hg10 mi
2:00 PM43 °FLight rain. Mostly cloudy.13 mph79%29.89 "Hg10 mi
12:53 PM45 °FLight rain. Mostly cloudy.9 mph65%29.90 "Hg8 mi
11:53 AM48 °FMostly cloudy.8 mph50%29.90 "Hg10 mi
10:53 AM46 °FMore clouds than sun.12 mph54%29.90 "Hg10 mi
9:53 AM44 °FOvercast.8 mph55%29.87 "Hg10 mi
8:53 AM42 °FScattered clouds.8 mph62%29.87 "Hg10 mi
Weather by CustomWeather, © 2015

See weather overviewHow to use our weather pages